DW7756 Weather Reports


Display with metric or nautical units.
time (UTC)temp
F
wind
direction
speed
MPH
gust
MPH
rain 1hr
in
rain 24hr
in
rain mn
in
humidity
%
barometer
mb
20260901121537 79 32 1.0 4.0 0.00 0.00 0.00 91 1016.5
20260901120034 78 52 0.0 2.0 0.00 0.00 0.00 91 1016.3
20260901114540 78 0 0.0 0.0 0.00 0.00 0.00 91 1016.1
20260901113033 77 0 0.0 0.0 0.00 0.00 0.00 91 1015.9
20260901111540 77 0 0.0 0.0 0.00 0.00 0.00 90 1015.8
20260901110036 77 0 0.0 0.0 0.00 0.00 0.00 90 1015.7
20260901104547 77 0 0.0 0.0 0.00 0.00 0.00 90 1015.7
20260901103040 77 0 0.0 0.0 0.00 0.00 0.00 90 1015.6
20260901101539 77 52 0.0 2.0 0.00 0.00 0.00 90 1015.5
20260901100044 77 0 0.0 2.0 0.00 0.00 0.00 90 1015.3
20260901094539 77 52 0.0 2.0 0.00 0.00 0.00 90 1015.4
20260901093039 77 0 0.0 2.0 0.00 0.00 0.00 90 1015.4
20260901091538 77 0 0.0 0.0 0.00 0.00 0.00 90 1015.3
20260901090036 77 0 0.0 0.0 0.00 0.00 0.00 90 1015.3
20260901084553 77 0 0.0 0.0 0.00 0.00 0.00 90 1015.3
20260901083037 77 0 0.0 0.0 0.00 0.00 0.00 89 1015.3
20260901081537 77 0 0.0 0.0 0.00 0.00 0.00 89 1015.4
20260901080042 77 0 0.0 0.0 0.00 0.00 0.00 89 1015.4
20260901074552 77 0 0.0 0.0 0.00 0.00 0.00 89 1015.6
20260901073040 77 0 0.0 0.0 0.00 0.00 0.00 89 1015.5
20260901071537 78 0 0.0 1.0 0.00 0.00 0.00 89 1015.5
20260901070040 78 0 0.0 0.0 0.00 0.00 0.00 89 1015.6
20260901064542 78 0 0.0 0.0 0.00 0.00 0.00 89 1015.9
20260901063049 78 0 0.0 1.0 0.00 0.00 0.00 89 1015.9
20260901061536 78 0 0.0 2.0 0.00 0.00 0.00 89 1016.0
20260901060038 78 0 0.0 0.0 0.00 0.00 0.00 88 1016.3
20260901054535 78 0 0.0 0.0 0.00 0.00 0.00 88 1016.6
20260901053050 78 0 0.0 0.0 0.00 0.00 0.00 88 1017.0
20260901051538 78 0 0.0 0.0 0.00 0.00 0.00 88 1017.1
20260901050034 78 0 0.0 0.0 0.00 0.00 0.00 88 1017.1
20260901044541 79 0 0.0 0.0 0.00 0.00 0.00 88 1017.5
20260901043045 79 0 0.0 0.0 0.00 0.00 0.00 88 1017.2
20260901041537 79 0 0.0 0.0 0.00 0.00 0.00 88 1017.1
20260901040034 79 0 0.0 0.0 0.00 0.00 0.00 87 1016.9
20260901034539 79 0 0.0 0.0 0.00 0.00 0.00 87 1017.1
20260901033048 79 0 0.0 0.0 0.00 0.00 0.00 87 1017.4
20260901031541 79 0 0.0 0.0 0.00 0.00 0.00 86 1017.5
20260901030034 79 0 0.0 0.0 0.00 0.00 0.00 86 1017.4
20260901024536 80 0 0.0 0.0 0.00 0.00 0.00 86 1017.4
20260901023048 80 0 0.0 0.0 0.00 0.00 0.00 86 1017.4
20260901021543 80 0 0.0 1.0 0.00 0.00 0.00 85 1017.3
20260901020041 80 0 0.0 0.0 0.00 0.00 0.00 85 1017.1
20260901014539 80 0 0.0 0.0 0.00 0.00 0.00 84 1017.0
20260901013040 80 0 0.0 1.0 0.00 0.00 0.00 84 1016.7
20260901011538 81 0 0.0 0.0 0.00 0.00 0.00 83 1016.6
20260901010038 81 0 0.0 0.0 0.00 0.00 0.00 83 1016.7
20260901004538 81 0 0.0 2.0 0.00 0.00 0.00 83 1016.5
20260901003039 82 52 0.0 2.0 0.00 0.00 0.00 82 1016.3
20260901001547 82 0 0.0 1.0 0.00 0.00 0.00 82 1016.3
20260901000045 82 0 0.0 2.0 0.00 0.00 0.00 81 1016.2
20260831234535 82 0 0.0 0.0 0.00 0.00 0.00 80 1016.2
20260831233035 83 0 0.0 2.0 0.00 0.00 0.00 80 1016.3
20260831231538 83 0 0.0 2.0 0.00 0.00 0.00 79 1016.2
20260831230038 83 87 0.0 2.0 0.00 0.00 0.00 79 1016.1
20260831224536 83 0 0.0 4.0 0.00 0.00 0.00 79 1016.2
20260831223039 84 0 0.0 4.0 0.00 0.00 0.00 79 1016.4
20260831221540 84 9 0.0 4.0 0.00 0.00 0.00 79 1016.4
20260831220037 84 0 0.0 4.0 0.00 0.00 0.00 78 1016.7
20260831214537 84 0 0.0 2.0 0.00 0.00 0.00 78 1016.7
20260831213036 84 0 0.0 3.0 0.00 0.00 0.00 78 1016.7
20260831211558 84 0 0.0 3.0 0.00 0.00 0.00 77 1016.6
20260831210036 84 0 0.0 2.0 0.00 0.00 0.00 77 1016.5
20260831204541 84 0 0.0 2.0 0.00 0.00 0.00 77 1016.6
20260831203037 84 82 0.0 4.0 0.00 0.00 0.00 77 1016.6
20260831201535 84 82 1.0 4.0 0.00 0.00 0.00 77 1016.8
20260831200036 85 104 0.0 3.0 0.00 0.00 0.00 77 1016.8
20260831194533 85 27 1.0 6.0 0.00 0.00 0.00 76 1016.6
20260831193041 85 38 1.0 4.0 0.00 0.00 0.00 75 1016.8
20260831191539 85 25 0.0 5.0 0.00 0.00 0.00 75 1017.0
20260831190104 85 39 3.0 9.0 0.00 0.00 0.00 74 1017.1
20260831184534 85 360 1.0 7.0 0.00 0.03 0.00 75 1017.0
20260831183038 86 5 2.0 6.0 0.00 0.03 0.00 75 1016.9
20260831181545 86 21 2.0 16.0 0.00 0.03 0.00 74 1016.8
20260831180037 88 11 2.0 11.0 0.00 0.03 0.00 72 1016.8
20260831174541 87 307 5.0 11.0 0.00 0.16 0.00 72 1017.0
20260831173038 87 300 6.0 14.0 0.00 0.16 0.00 74 1017.1
20260831171536 87 50 6.0 15.0 0.00 0.16 0.00 74 1017.4
20260831170039 90 21 4.0 10.0 0.00 0.16 0.00 70 1017.6
20260831164549 90 67 2.0 9.0 0.00 0.16 0.00 70 1017.7
20260831163038 89 42 2.0 7.0 0.00 0.16 0.00 71 1017.6
20260831161536 89 90 1.0 9.0 0.00 0.16 0.00 72 1017.9
20260831160041 89 47 1.0 5.0 0.00 0.16 0.00 71 1018.2
20260831154614 89 30 1.0 6.0 0.00 0.16 0.00 70 1018.2
20260831153050 91 75 1.0 4.0 0.00 0.16 0.00 69 1018.1
20260831151543 89 74 1.0 4.0 0.00 0.16 0.00 69 1018.1
20260831150045 88 103 2.0 6.0 0.00 0.16 0.00 68 1018.0
20260831144538 87 92 1.0 3.0 0.00 0.16 0.00 75 1017.9
20260831143039 85 360 0.0 2.0 0.00 0.16 0.00 77 1017.7
20260831141534 85 0 0.0 3.0 0.00 0.16 0.00 83 1017.8
20260831140038 83 323 0.0 3.0 0.00 0.16 0.00 85 1017.5
20260831134544 83 9 1.0 2.0 0.00 0.16 0.00 88 1017.4
20260831133036 82 0 0.0 2.0 0.00 0.16 0.00 89 1017.5
20260831131542 81 5 1.0 4.0 0.00 0.16 0.00 90 1017.2
20260831130039 80 18 2.0 4.0 0.00 0.16 0.00 91 1017.2
20260831124535 79 5 2.0 4.0 0.00 0.16 0.00 91 1017.2
20260831123036 79 348 1.0 4.0 0.00 0.16 0.00 91 1017.4